Regional Weather Roundup
Issued by NWS Albany, NY

Home | Current Version | Previous Version | Text Only | Print | Product List | Glossary Off
Versions: 1 2 3 4 5 6 7 8 9 10 11 12 13 14 15 16 17 18 19 20 21 22 23 24 25 26 27 28 29 30 31 32 33 34 35 36 37 38 39 40 41 42 43 44 45 46 47 48 49 50

000
ASUS41 KALY 221610
RWRALY

NEW YORK STATE HOURLY WEATHER ROUNDUP
NATIONAL WEATHER SERVICE ALBANY NY
1200 PM EDT MON SEP 22 2014

NOTE: "FAIR" INDICATES FEW OR NO CLOUDS BELOW 12,000 FEET WITH NO
SIGNIFICANT WEATHER AND/OR NO OBSTRUCTIONS TO VISIBILITY.

NYZ032-033-038>043-046>054-057>066-NYZ062>081-221700-
EAST


CITY           SKY/WX    TMP DP  RH WIND       PRES   REMARKS
ALBANY         PTSUNNY   60  44  55 NW17G25   29.90R
GLENS FALLS    PTSUNNY   61  41  47 NW21      29.86R
POUGHKEEPSIE   MOSUNNY   69  47  45 W10       29.87R
NEWBURGH       MOSUNNY   66  48  52 NW18G30   29.90S
MONTGOMERY     SUNNY     67  47  48 NW17G23   29.89S
WHITE PLAINS   MOSUNNY   68  47  46 NW17G25   29.87R
ISLIP          PTSUNNY   70  51  51 NW13G22   29.84R
NEW YORK CITY  PTSUNNY   68  51  54 NW18      29.88R
CENTRAL PARK   CLOUDY    68  48  48 NW8G20    29.91R
$$

NYZ005>009-017-018-044>046-055-056-221700-
CENTRAL


CITY           SKY/WX    TMP DP  RH WIND       PRES   REMARKS
FULTON         CLOUDY    51  41  68 NW14      30.00R
SYRACUSE       CLOUDY    53  40  61 W17G23    30.00R
ROME           LGT RAIN  51  46  83 W18       29.98R
ELMIRA         CLOUDY    55  44  66 W15G21    30.03R
BINGHAMTON     CLOUDY    49  43  80 NW12      29.99R
MONTICELLO     CLOUDY    55  45  67 W17G24    29.95R
$$

NYZ026>034-041>043-221700-
NORTH


CITY           SKY/WX    TMP DP  RH WIND       PRES   REMARKS
WATERTOWN      CLOUDY    52  37  56 W9        29.97R
FORT DRUM      NOT AVBL
MASSENA        CLOUDY    50  40  68 W22G31    29.90R
SARANAC LAKE   CLOUDY    44  40  85 W12G22    29.86R
PLATTSBURGH    PTSUNNY   54  42  64 W9G22     29.82R
$$

NYZ001>004-010>016-019>021-221700-
WEST


CITY           SKY/WX    TMP DP  RH WIND       PRES   REMARKS
NIAGARA FALLS  CLOUDY    51  40  65 NW15      30.08R
BUFFALO        CLOUDY    51  39  63 NW14      30.08R
DUNKIRK        CLOUDY    51  40  65 NW13G21   30.12R
JAMESTOWN      CLOUDY    46  39  76 NW12      30.10R
WELLSVILLE     CLOUDY    46  40  79 NW13      30.08R
ROCHESTER      PTSUNNY   54  39  57 NW13G22   30.04R
PENN YAN       CLOUDY    53  40  61 W10       30.03R
$$

             KEY
       WCI = WIND CHILL INDEX
       VSB = VISIBILITY
       HX  = HEAT INDEX
$$



USA.gov is the U.S. government's official web portal to all federal, state and local government web resources and services.